APSTAR-6D

Last updated on Sun Oct 06 2024 00:02:42 GMT+0000 (Coordinated Universal Time)

1 45863U 20045A 24276.87549473 -.00000314 00000+0 00000+0 0 9992 2 45863 0.0188 214.0662 0003858 9.4151 237.8027 1.00272808 15610
UTC large
Height (km)
Speed (km/s)
/
Latitude / Longitude
Inclination (degrees)
Orbital Period (minutes)
Azimuth
Elevation
Range (km)
Doppler Factor

Next 0 passes for location: London (51.5072 / 0.1276)

Sorry there are no passes over London.